Dewpoint
20 17 16 12 15 16 16 17 16 16 15 15 12 12 13 14 14 15 17 18 17 15 17 17 20 24 25 25 49 61 64 64 64 63 62 62 62 63 63 63 63 63 63 63
21 19 20 18 16 16 16 15 15 16 15 14 13 13 14 15 15 16 18 21 20 19 19 19 18 22 27 28 50 62 63 63 63 63 62 61 60 62 62 62 62 62 62 62
20 20 21 20 19 18 18 17 16 17 18 17 15 15 18 20 22 23 23 29 42 42 30 21 19 20 25 32 58 62 63 63 62 62 60 60 59 60 60 61 61 61 61 61
20 21 20 20 19 18 16 20 19 17 16 13 21 16 18 20 20 22 23 43 43 43 45 37 39 41 41 37 57 62 63 62 62 61 60 59 58 57 58 59 59 60 61 61
18 17 16 16 16 18 16 20 20 19 18 20 18 17 16 26 38 40 42 43 43 42 42 44 46 47 49 54 59 61 63 62 61 61 60 58 57 57 58 58 58 58 59 61
17 19 17 16 16 16 19 19 23 22 21 18 17 17 20 35 37 36 40 42 43 42 42 43 45 46 46 51 61 62 62 61 60 60 59 58 58 57 57 57 58 58 59 60
17 18 19 18 16 16 17 19 18 17 16 15 18 19 22 36 38 38 39 42 42 41 40 42 43 45 46 50 53 61 61 60 60 59 58 58 58 57 56 57 57 58 58 59
13 8 15 23 20 15 17 18 18 14 12 11 20 18 28 38 38 39 43 42 40 40 39 40 41 42 45 49 54 61 61 59 59 58 58 58 57 57 57 57 58 58 58 58
17 19 21 26 25 20 21 20 21 19 20 20 20 29 36 37 38 41 43 40 38 37 37 38 39 40 43 46 51 59 60 59 58 58 58 57 57 56 57 58 58 58 57 57
14 9 25 22 22 23 23 25 18 23 17 16 19 19 26 33 36 38 39 38 35 35 36 36 37 38 41 44 47 53 59 59 58 58 58 58 57 57 57 58 57 57 57 57
18 21 16 12 21 18 17 19 26 26 23 19 17 19 35 34 36 39 37 36 34 34 34 34 35 37 39 41 43 47 51 59 59 59 58 57 57 57 58 58 58 57 57 57
23 21 16 14 18 18 19 27 33 26 24 25 22 21 36 36 38 36 35 34 33 33 33 33 34 34 36 37 40 42 45 49 58 58 57 57 57 58 58 58 58 58 57 57
19 17 12 4 9 23 23 23 24 29 31 27 24 23 36 40 36 35 33 33 33 32 32 32 32 33 34 35 36 39 42 44 53 57 57 57 57 57 57 57 58 58 58 57
23 19 15 12 14 18 17 16 16 24 24 26 25 30 34 37 37 35 33 33 32 32 31 31 31 32 33 34 34 36 39 42 46 52 54 54 54 54 54 54 54 54 52 51
22 18 20 20 21 20 19 19 16 15 20 25 28 31 35 37 36 34 33 32 31 31 31 31 30 31 32 33 33 34 36 39 43 46 47 47 48 48 48 47 46 44 43 42
23 17 16 9 15 17 17 20 19 16 16 20 25 32 34 36 35 33 32 31 30 30 30 30 30 30 30 31 32 34 35 36 40 40 41 42 43 42 41 41 40 39 38 38
18 16 14 8 16 18 15 19 19 15 24 30 28 34 35 31 29 29 30 30 29 29 29 29 29 29 30 30 32 33 34 35 36 38 38 38 38 38 37 37 36 35 34 35
17 16 18 16 18 12 18 32 30 31 32 33 33 34 32 28 28 28 29 28 28 28 28 29 29 30 30 31 31 33 33 34 34 34 36 35 35 35 34 34 33 32 32 32
20 19 20 16 15 15 18 30 28 26 27 31 30 33 31 28 27 26 28 29 28 29 30 29 30 30 30 30 31 31 31 32 32 32 32 34 33 32 32 30 30 30 30 30
24 21 22 21 16 13 25 28 32 32 23 30 29 27 30 30 28 23 28 29 29 30 31 30 30 30 29 30 31 30 29 29 29 30 31 32 32 32 31 30 29 29 29 28
23 24 20 20 18 20 27 30 32 23 22 27 26 25 26 24 25 27 29 29 30 30 30 31 31 30 30 31 30 28 28 27 29 30 30 30 31 31 31 31 30 29 28 27
24 22 22 23 19 17 28 27 23 28 30 26 25 24 23 25 26 26 27 29 29 29 29 29 27 27 30 31 30 28 26 27 27 27 27 27 27 28 29 30 30 29 28 26
22 25 23 23 21 28 29 28 30 31 29 28 26 26 24 23 23 23 23 24 26 27 26 27 25 25 26 28 30 27 28 28 26 25 24 24 25 25 26 26 26 27 26 25
24 30 26 25 26 27 29 30 30 30 27 27 26 24 23 22 22 21 22 22 22 24 24 24 23 23 24 27 28 25 24 26 25 24 23 24 23 23 23 24 25 24 24 23
25 26 25 24 26 27 27 28 30 28 28 27 27 25 25 23 22 21 21 21 21 22 22 22 22 22 23 25 26 27 30 27 24 23 23 22 22 22 22 23 23 22 23 23
27 24 22 20 26 25 26 28 29 29 26 25 23 23 23 22 21 20 20 21 20 20 20 19 20 20 20 21 23 25 27 27 26 23 20 20 19 18 18 18 20 22 22 21
Wind_Speed
6 7 17 18 18 14 16 18 24 25 20 13 19 25 28 23 24 27 26 27 27 28 25 23 23 22 24 24 23 28 27 25 26 23 23 19 21 17 16 12 15 17 17 19
3 20 23 19 18 18 17 22 27 26 21 14 26 33 30 22 21 27 29 27 28 32 31 29 23 22 20 20 24 30 32 32 30 26 21 15 20 11 13 12 13 14 16 15
17 17 17 20 20 18 18 19 15 22 19 17 14 29 25 16 19 23 24 15 19 23 30 32 27 23 23 17 25 31 32 33 27 24 19 15 14 13 11 14 14 13 15 16
14 21 22 20 16 21 21 15 13 15 14 22 2 23 16 16 26 26 20 16 19 27 33 17 11 13 16 16 27 32 32 33 27 28 22 28 26 23 13 14 10 13 14 14
8 8 10 13 8 6 15 8 9 14 15 15 28 13 13 15 15 28 28 22 21 23 25 27 24 20 18 7 24 29 32 30 28 28 24 24 19 15 15 14 16 16 12 14
15 7 6 13 14 11 5 4 8 9 11 21 29 14 6 2 8 22 26 27 20 25 27 26 23 21 23 17 10 21 29 28 26 25 25 25 24 21 20 18 16 14 12 12
10 15 10 13 19 13 8 1 6 5 3 13 7 8 11 5 16 14 18 21 22 22 24 26 27 25 23 20 11 17 23 25 27 26 25 24 24 22 24 21 17 14 13 11
5 8 6 13 7 17 15 15 9 9 10 21 15 10 3 6 10 12 10 12 24 33 23 23 23 21 23 24 9 20 17 14 23 24 22 22 22 19 18 19 16 14 14 14
7 6 16 8 14 4 5 10 18 16 18 16 8 1 2 7 7 6 11 14 15 17 23 22 24 25 25 25 21 9 26 27 23 24 24 23 22 21 19 18 18 15 11 11
6 9 3 11 12 9 8 2 5 3 5 10 6 7 5 9 10 11 9 12 11 14 18 23 24 25 24 23 22 17 5 14 20 23 23 20 21 22 20 19 18 16 13 12
6 1 5 10 5 12 16 11 7 8 9 12 13 6 7 7 6 9 6 11 16 19 20 21 22 23 22 23 23 16 21 13 7 10 17 19 17 18 19 17 16 16 14 13
4 4 9 9 17 19 14 8 3 5 6 9 14 21 12 11 6 9 10 11 12 15 18 19 20 22 23 24 26 27 25 19 11 2 16 17 19 17 17 16 14 14 14 12
3 3 9 16 6 9 6 8 12 13 11 10 9 8 7 2 12 12 12 14 15 16 18 20 23 25 25 25 25 23 19 17 12 2 14 19 17 15 13 14 13 13 12 10
1 4 6 9 15 15 22 20 14 8 9 13 16 18 15 12 11 8 11 12 14 16 18 19 20 21 21 21 22 23 22 21 18 10 15 21 19 17 16 16 16 14 13 11
2 3 1 9 15 20 22 21 20 18 18 14 14 22 9 9 12 11 11 11 16 20 22 21 20 19 20 20 20 21 21 23 21 16 11 17 19 18 17 19 17 16 16 13
3 4 7 22 17 20 22 23 24 21 22 21 23 16 5 15 14 14 12 13 15 17 19 20 19 21 23 21 19 19 21 23 20 20 20 17 17 17 16 19 18 19 17 15
7 6 4 16 9 18 17 15 21 19 10 13 16 3 9 11 16 16 13 14 14 15 16 17 18 19 20 21 20 19 18 19 24 22 21 20 20 19 16 17 20 21 19 16
12 12 8 10 12 6 1 23 12 13 10 4 14 7 11 14 16 13 13 11 13 14 14 14 15 15 17 20 22 18 17 19 19 21 22 23 22 20 19 20 20 19 19 18
23 12 5 5 6 16 12 9 7 3 7 9 11 4 11 15 13 14 11 11 10 11 12 13 13 13 15 19 20 20 20 18 21 19 18 20 20 21 21 22 21 17 19 19
11 19 12 4 4 4 5 17 14 4 5 9 5 4 1 13 0 3 8 9 11 12 12 13 14 15 18 18 16 19 20 20 22 19 18 18 19 17 24 19 19 19 20 21
4 7 15 11 8 5 16 25 16 5 3 8 10 13 9 7 8 7 6 10 11 13 14 13 13 16 16 17 17 19 19 20 18 18 18 20 20 20 18 20 15 19 19 21
3 4 6 7 3 4 24 8 8 5 11 11 14 12 16 15 13 12 13 11 13 14 16 17 18 18 17 15 15 17 18 15 16 18 18 21 20 20 17 19 19 15 18 16
8 9 3 6 4 6 8 11 11 11 12 12 13 10 12 12 13 13 14 15 15 15 14 14 15 16 18 18 15 15 14 14 14 16 17 18 19 19 18 20 19 13 15 15
10 13 3 2 7 11 13 11 14 12 13 14 14 13 14 16 14 14 14 15 15 15 15 14 15 17 17 17 18 15 15 13 14 15 16 16 19 18 18 17 15 14 13 13
5 10 8 4 7 8 12 12 9 11 13 16 16 15 13 14 13 12 13 14 14 15 15 14 14 15 16 16 17 16 11 10 13 13 12 14 15 17 19 20 16 17 18 14
6 4 4 1 7 7 6 7 10 11 13 11 14 15 13 15 14 12 13 12 13 14 13 14 15 15 16 16 17 17 15 13 11 11 11 11 12 12 14 15 18 25 22 21
Wind_Direction
192 202 229 235 228 236 242 268 275 277 281 287 275 283 287 287 290 293 293 293 288 279 271 258 258 255 245 236 187 179 173 174 161 168 166 166 173 173 172 179 181 183 181 177
228 226 235 238 239 235 242 255 270 282 277 275 294 286 284 279 273 274 277 283 282 279 278 269 256 256 247 223 189 173 175 174 178 170 180 172 163 171 163 177 194 190 184 177
231 239 236 227 246 253 251 249 253 281 297 285 290 289 287 284 289 283 282 301 353 339 290 267 253 244 244 213 178 176 176 179 175 158 147 128 130 132 163 188 201 198 182 177
244 246 245 250 237 242 255 261 287 288 298 295 143 292 297 302 300 297 289 18 4 358 357 350 346 346 326 220 187 180 178 174 170 156 160 164 171 168 184 190 187 188 182 179
234 293 288 287 273 239 260 229 290 301 285 306 287 261 285 332 2 5 1 360 350 13 352 350 347 346 344 269 185 182 174 170 166 162 164 163 161 163 156 168 188 195 190 180
253 248 264 266 283 270 280 312 317 287 282 278 279 241 320 15 358 3 346 343 348 15 349 346 345 354 354 357 190 176 172 171 160 164 164 162 160 159 158 169 185 193 200 195
283 275 272 261 268 263 230 222 302 299 216 247 323 327 271 311 322 333 330 330 345 9 350 344 346 359 352 340 301 184 179 163 167 166 165 160 162 161 161 170 179 182 190 191
283 302 12 353 294 237 211 206 203 258 271 288 308 271 314 347 327 308 310 358 1 347 352 344 339 360 353 344 272 169 186 167 164 162 162 159 161 160 158 167 171 187 187 176
358 260 328 20 343 270 206 187 222 247 269 285 260 165 190 338 324 20 341 23 13 337 338 340 350 2 356 355 0 200 172 179 168 163 158 163 161 156 163 167 169 181 174 175
3 299 339 319 336 22 354 35 246 254 274 262 258 277 273 330 326 345 351 3 7 354 354 353 358 356 357 356 355 20 47 178 168 159 161 162 162 157 163 161 170 174 161 167
6 257 303 350 16 349 340 329 334 292 228 260 285 260 209 263 267 289 38 22 11 7 0 357 358 360 358 2 5 8 31 67 114 164 147 146 148 149 152 162 168 166 165 174
4 290 289 287 290 281 281 336 27 287 314 302 272 273 203 246 345 81 38 25 18 19 9 3 5 5 7 7 5 15 26 14 72 164 142 139 131 141 152 159 156 158 174 177
24 352 328 323 345 21 60 355 338 311 261 246 271 283 224 142 83 63 40 17 19 17 17 13 11 13 8 9 8 11 19 14 2 173 137 122 118 133 136 139 143 150 157 163
163 205 221 259 279 291 297 303 302 301 293 311 290 299 316 139 113 69 57 32 19 18 21 22 16 13 10 9 11 9 8 9 6 19 104 105 107 107 102 93 89 88 98 102
77 264 240 287 281 282 276 283 277 264 269 264 296 305 359 112 97 71 53 41 24 17 18 19 17 13 11 11 14 13 14 14 16 31 50 83 97 98 100 98 92 87 80 77
354 229 339 299 292 277 272 282 261 260 263 266 281 263 66 53 61 54 36 39 36 23 16 13 17 16 11 7 7 18 16 21 29 32 40 45 72 79 87 93 92 86 77 70
225 252 277 276 294 312 285 260 231 243 276 270 252 148 158 102 63 30 24 34 37 30 19 12 16 22 17 5 2 10 21 31 36 41 39 45 53 62 64 84 87 85 80 71
226 213 218 279 312 265 359 28 52 61 39 36 85 96 100 98 85 56 31 31 36 33 26 20 15 21 21 20 8 11 18 38 44 42 44 47 51 55 58 65 68 75 78 76
208 184 221 233 243 291 301 33 18 325 51 23 59 64 120 127 102 53 35 39 36 35 32 27 20 23 32 32 20 22 25 31 43 42 43 54 64 59 57 60 65 59 70 68
196 194 180 198 269 283 349 334 335 209 118 17 51 1 157 170 133 36 36 47 45 45 33 38 27 34 35 27 30 35 36 34 36 32 41 50 63 69 73 65 65 70 68 68
93 142 204 224 241 280 353 330 321 138 99 58 68 42 69 89 83 112 91 71 60 51 48 40 40 38 35 33 35 42 38 37 35 32 38 49 53 57 71 77 67 75 73 79
52 259 195 213 204 277 359 359 47 50 77 80 78 84 92 92 88 76 63 67 66 58 43 38 43 30 25 35 40 44 43 35 40 47 46 44 47 52 51 69 67 57 76 74
32 356 28 37 88 43 26 45 43 45 79 88 95 88 98 97 77 66 65 55 47 54 55 48 47 41 30 28 39 46 43 42 47 51 51 55 55 54 50 58 63 65 64 69
355 11 49 114 49 53 42 59 51 59 78 79 86 97 97 97 87 75 61 55 55 48 45 42 44 42 32 27 35 52 49 49 51 53 52 55 63 59 56 57 57 58 59 71
342 328 351 93 135 116 54 37 68 72 70 78 77 85 86 84 73 77 69 59 54 56 49 42 41 42 34 29 32 31 51 69 63 61 62 62 62 67 68 63 60 69 62 65
348 344 354 355 337 100 66 62 50 75 86 89 90 87 83 90 83 76 73 69 64 59 54 51 43 42 33 32 29 26 30 45 61 76 70 72 73 72 76 79 75 68 77 78